SCP
0 -0 -0 -0 -0 -0 0 0 0 0 0 0 0 0 0 -0 -0 0 0 0 0 0 0 0 0 0 0 0 0 0 0 0 0 0 0 0 0 0 0 0 0 0 0 0 0 0 0 0 0 0 0 0 0 0
0 0 0 0 -0 -0 -0 -0 0 0 0 0 0 0 -0 -0 0 0 0 0 0 0 0 0 0 0 0 0 0 0 0 0 0 0 0 0 0 0 0 0 0 0 0 0 0 0 0 0 0 0 0 0 0 0
-0 -0 -0 -0 0 0 0 0 0 0 0 0 0 0 0 0 0 0 0 0 0 0 0 0 0 0 0 0 0 0 0 0 0 0 0 0 0 0 0 0 0 0 0 0 0 0 0 0 0 0 0 0 0 0
-0 -0 -0 -0 -0 0 0 -0 0 0 0 0 0 0 0 0 0 0 0 0 0 0 0 0 0 0 0 0 0 0 0 0 0 0 0 0 0 0 0 0 0 0 0 0 0 0 0 0 0 0 0 0 0 0
-0 -0 -0 -0 -0 -0 -0 -0 -0 -0 0 0 0 -0 0 0 0 0 0 0 0 0 0 0 0 0 0 0 0 0 0 0 0 0 0 0 0 0 0 0 0 0 0 0 0 0 0 0 0 0 0 0 0 0
-0 -0 -0 -0 -0 -0 -0 -0 -0 -0 -0 -0 -0 0 0 -0 0 0 0 0 0 0 0 0 0 0 0 0 0 0 0 0 0 0 0 0 0 0 0 0 0 0 0 0 0 0 0 0 -0 0 0 0 0 0
-0 -0 -0 -0 -0 -0 -0 -0 -0 -0 -0 -0 -0 -0 -0 0 0 0 0 0 0 0 0 0 0 0 0 0 0 0 0 0 0 0 0 0 0 0 0 0 0 0 0 0 0 0 0 0 0 0 0 0 0 0
-0 -0 -0 -0 -0 -0 -0 -0 -0 -0 -0 -0 -0 -0 -0 -0 0 0 0 0 0 0 0 0 0 0 0 0 0 0 0 0 0 0 0 0 0 0 0 0 0 0 0 0 0 0 0 0 0 0 0 0 0 0
-0 -0 -0 -0 -0 -0 -0 -0 -0 -0 -0 -0 0 0 0 -0 0 0 -0 0 0 0 0 0 0 0 0 0 0 0 0 0 0 0 0 0 0 0 0 0 0 0 0 0 0 0 0 0 0 0 0 0 0 0
-0 -0 -0 -0 -0 -0 -0 -0 -0 -0 0 0 0 0 0 0 0 0 0 0 0 0 0 0 0 0 0 0 0 0 0 0 0 0 0 0 0 0 0 0 0 0 0 0 0 0 0 0 0 0 0 0 0 0
-0 -0 -0 -0 -0 -0 -0 -0 -0 -0 -0 0 0 0 0 0 0 0 0 0 0 0 0 0 0 0 0 0 0 0 0 0 0 0 0 0 0 0 0 0 0 0 0 0 0 0 0 0 0 0 0 0 0 0
-0 -0 -0 -0 -0 -0 -0 0 -0 0 0 0 0 0 0 0 0 0 0 0 0 0 0 0 0 0 0 0 0 0 0 0 0 0 0 0 0 0 0 0 0 0 0 0 0 0 0 0 0 -0 -0 -0 0 0
-0 -0 -0 -0 -0 -0 -0 -0 0 0 -0 0 0 0 0 0 0 0 0 0 0 0 0 0 0 0 0 0 0 0 0 0 0 0 0 0 0 0 0 0 0 0 0 0 0 0 0 0 -0 -0 -0 -0 0 0
0 0 -0 -0 -0 -0 -0 -0 -0 0 0 0 0 0 0 0 0 0 0 0 0 0 0 0 0 0 0 0 0 0 0 0 0 0 0 0 0 0 0 0 0 0 0 0 0 0 0 0 -0 -0 0 0 0 0
0 0 0 0 0 0 -0 -0 -0 -0 -0 0 0 0 0 0 0 0 0 0 0 0 0 0 0 0 0 0 0 0 0 0 0 0 0 0 0 0 0 0 0 0 0 0 0 0 0 0 0 0 0 0 0 0
0 0 0 -0 0 0 0 0 -0 0 0 0 0 0 0 0 0 0 0 0 0 0 0 0 0 0 0 0 0 0 0 0 0 0 0 0 0 0 0 0 0 0 0 0 0 0 0 0 0 0 0 0 0 0
0 0 0 -0 0 0 -0 0 0 0 0 0 0 0 0 0 0 0 0 0 0 0 0 0 0 0 0 0 0 0 0 0 0 0 0 0 0 0 0 0 0 0 0 0 0 0 0 0 0 0 0 0 0 0
0 0 0 0 0 0 0 0 0 0 0 0 0 0 0 0 0 0 0 0 0 0 0 0 0 0 0 0 0 0 0 0 0 0 0 0 0 0 0 0 0 0 0 0 0 0 0 0 0 0 0 0 0 0
0 0 0 -0 0 0 0 0 0 0 0 0 0 0 0 0 0 0 0 0 0 0 0 0 0 0 0 0 0 0 0 0 0 0 0 0 0 0 0 0 0 0 0 0 0 0 0 0 0 0 0 0 0 0
0 0 -0 0 0 0 0 0 0 0 0 0 0 0 0 0 0 0 0 0 0 0 0 0 0 0 0 0 0 0 0 0 0 0 0 0 0 0 0 0 0 0 0 0 0 0 0 0 0 0 0 0 0 0
0 0 0 0 0 0 0 0 0 0 0 0 0 0 0 0 0 0 0 0 0 0 0 0 0 0 0 0 0 0 0 0 0 0 0 0 0 0 0 0 0 0 0 0 0 0 0 0 0 0 0 0 0 0
0 0 0 0 0 0 0 0 0 0 0 0 0 0 0 0 0 0 0 0 0 0 0 0 0 0 0 0 0 0 0 0 0 0 0 0 0 0 0 0 0 0 0 0 0 0 0 0 0 0 0 0 0 0
0 0 0 0 0 0 0 0 0 0 0 0 0 0 0 0 0 0 0 0 0 0 0 0 0 0 0 0 0 0 0 0 0 0 0 0 0 0 0 0 0 0 0 0 0 0 0 0 0 0 0 0 0 0
0 0 0 0 0 0 0 0 0 0 0 0 0 0 0 0 0 0 0 0 0 0 0 0 0 0 0 0 0 0 0 0 0 0 0 0 0 0 0 0 0 0 0 0 0 0 0 0 0 0 0 0 0 0
0 0 0 0 0 0 0 0 0 0 0 0 0 0 0 0 0 0 0 0 0 0 0 0 0 0 0 0 0 0 0 0 0 0 0 0 0 0 0 0 0 0 0 0 0 0 0 0 0 0 0 0 0 0
0 0 0 0 0 0 0 0 0 0 0 0 0 0 0 0 0 0 0 0 0 0 0 0 0 0 0 0 0 0 0 0 0 0 0 0 0 0 0 0 0 0 0 0 0 0 0 0 0 0 0 0 0 0
0 0 0 0 0 0 0 0 0 0 0 0 0 0 0 0 0 0 0 0 0 0 0 0 0 0 0 0 0 0 0 0 0 0 0 0 0 0 0 0 0 0 0 0 0 0 0 0 0 0 0 0 0 0
0 0 0 0 0 0 0 0 0 0 0 0 0 0 0 0 0 0 0 0 0 0 0 0 0 0 0 0 0 0 0 0 0 0 0 0 0 0 0 0 0 0 0 0 0 0 0 0 0 0 0 0 0 0
0 0 0 0 0 0 0 0 0 0 0 0 0 0 0 0 0 0 0 0 0 0 0 0 0 0 0 0 0 0 0 0 0 0 0 0 0 0 0 0 0 0 0 0 0 0 0 0 0 0 0 0 0 0
0 0 0 0 0 0 0 0 0 0 0 0 0 0 0 0 0 0 0 0 0 0 0 0 0 0 0 0 0 0 0 0 0 0 0 0 0 0 0 0 0 0 0 0 0 0 0 0 0 0 0 0 0 0
0 0 0 0 0 0 0 0 0 0 0 0 0 0 0 0 0 0 0 0 0 0 0 0 0 0 0 0 0 0 0 0 0 0 0 0 0 0 0 0 0 0 0 0 0 0 0 0 0 0 0 0 0 0
0 0 0 0 0 0 0 0 0 0 0 0 0 0 0 0 0 0 0 0 0 0 0 0 0 0 0 0 0 0 0 0 0 0 0 0 0 0 0 0 0 0 0 0 0 0 0 0 0 0 0 0 0 0
0 0 0 0 0 0 0 0 0 0 0 0 0 0 0 0 0 0 0 0 0 0 0 0 0 0 0 0 0 0 0 0 0 0 0 0 0 0 0 0 0 0 0 0 0 0 0 0 0 0 0 0 0 0
Wind_Speed_500mb
102 105 98 88 79 73 57 50 53 62 67 70 73 81 68 39 10 24 30 39 51 31 33 18 15 20 42 29 19 28 16 6 6 7 7 5 6 9 7 11 11 12 13 7 6 5 11 4 9 5 10 23 33 32
93 93 91 92 84 82 77 73 44 49 50 51 61 59 57 38 16 28 39 36 70 47 33 45 42 34 28 26 56 23 9 12 13 8 3 7 5 4 9 5 6 6 10 9 14 8 9 40 45 26 21 14 28 34
84 88 84 84 80 79 79 75 60 45 45 46 44 39 36 40 33 36 52 53 53 48 41 30 33 35 25 37 47 15 9 12 12 14 8 4 7 6 7 7 5 3 2 5 8 15 17 36 25 28 39 26 31 37
77 77 79 83 79 77 73 69 57 46 45 53 42 39 38 35 37 51 74 57 51 27 10 21 33 40 29 19 21 17 30 28 35 22 10 6 6 2 3 6 6 2 5 4 1 16 22 30 31 54 42 43 49 53
75 73 69 71 74 76 75 67 62 59 41 30 36 38 31 31 38 46 47 45 24 13 11 11 35 43 33 28 27 31 38 44 18 10 7 5 6 7 3 5 6 14 7 2 4 12 10 18 48 45 46 55 63 70
65 67 68 64 61 63 65 67 64 56 48 48 42 37 38 47 48 49 20 19 11 48 20 6 12 25 37 40 40 38 36 27 16 12 9 8 6 4 5 5 7 10 8 7 1 22 27 27 20 21 52 57 60 61
59 58 59 59 57 53 53 53 54 52 52 49 42 31 24 24 25 2 15 26 29 25 16 8 6 11 15 19 22 29 26 21 15 10 8 6 6 9 4 5 17 5 1 6 10 19 4 19 31 50 53 56 57 62
54 55 54 52 51 50 48 45 44 39 40 45 48 48 45 45 52 50 35 28 23 20 17 7 2 5 14 11 9 15 12 11 18 10 7 7 4 6 2 16 12 3 7 5 4 21 21 32 35 39 42 48 53 56
51 50 50 50 48 46 44 41 38 33 27 22 22 22 23 23 19 19 29 36 32 16 14 9 4 4 9 8 7 8 8 7 8 5 5 6 4 5 7 21 13 6 3 9 14 14 14 25 30 35 41 46 49 52
47 46 46 45 46 45 43 40 35 29 22 17 14 12 13 16 17 13 8 7 15 21 18 6 5 3 11 4 7 3 7 4 4 3 5 6 4 14 17 9 7 6 7 7 7 5 19 23 30 34 37 38 39 43
47 46 45 43 41 39 40 41 39 32 19 16 15 11 14 19 13 13 14 18 20 10 18 12 18 5 12 6 3 8 4 3 5 5 6 2 7 10 22 9 7 6 3 6 10 11 13 16 22 27 28 28 32 35
44 44 41 42 42 38 33 32 33 34 37 22 12 13 14 14 13 15 4 7 12 2 12 7 11 8 7 7 5 5 5 6 3 7 6 6 5 26 24 16 10 5 4 2 2 5 7 11 13 14 18 24 29 34
42 39 37 40 41 40 36 30 25 23 17 14 11 9 17 17 20 11 7 7 6 10 12 12 4 6 6 8 8 5 8 4 9 4 8 7 22 28 19 15 12 9 6 2 1 3 3 6 12 12 13 15 22 26
37 37 34 34 36 37 38 33 22 17 9 8 13 14 8 9 8 5 3 3 2 4 5 5 4 6 6 6 2 9 2 6 2 3 12 5 33 23 19 16 13 11 8 5 3 1 2 6 8 10 12 15 19 22
35 34 33 32 35 33 34 34 27 14 11 13 13 9 7 6 5 5 8 6 5 5 5 4 5 4 5 7 3 7 7 6 11 9 4 20 28 22 20 17 15 14 12 10 7 4 0 4 6 9 12 14 18 22
28 31 37 35 33 36 27 26 21 17 12 12 15 11 9 5 3 4 7 2 3 5 5 5 2 6 4 5 5 11 10 11 8 5 18 30 29 26 23 19 16 14 12 10 8 5 4 5 5 6 12 15 20 25
26 25 29 33 34 30 30 20 14 16 12 10 10 17 14 12 10 6 5 2 5 3 3 4 8 10 2 5 5 6 9 5 9 16 25 26 26 26 24 21 18 16 12 10 9 8 6 6 6 8 12 16 21 24
26 29 28 29 29 23 25 20 11 11 14 10 4 8 8 11 10 6 4 4 4 4 4 4 4 4 8 7 7 5 7 11 15 19 23 26 25 24 22 19 17 15 14 12 11 11 9 7 9 13 17 20 22 23
22 24 27 28 27 16 8 11 11 10 7 8 14 13 7 6 6 7 6 6 7 7 5 5 5 6 7 10 10 11 18 23 22 25 25 25 24 23 21 19 18 16 15 15 15 12 11 11 14 17 21 24 25 26
20 20 21 23 22 9 6 8 8 8 6 9 10 10 5 4 7 9 9 8 11 6 4 6 10 12 14 16 20 23 17 25 23 29 28 28 27 25 21 20 19 18 17 16 15 15 15 15 17 20 23 26 26 24
18 13 18 18 9 6 8 6 9 8 12 5 9 7 3 4 6 6 6 13 13 12 12 28 33 25 21 19 13 12 15 21 27 26 22 26 27 27 25 24 23 21 18 17 18 18 19 19 21 23 24 25 24 24
12 14 13 8 2 5 8 9 10 10 5 6 7 4 3 4 5 7 7 15 16 19 23 20 23 25 27 23 20 20 21 24 26 27 27 22 27 30 28 24 25 21 19 19 21 21 21 21 22 24 24 22 21 22
10 7 5 5 4 3 3 8 4 6 5 5 3 1 4 5 4 5 10 14 17 23 32 35 31 23 25 26 27 27 27 27 28 27 26 24 25 26 26 24 24 24 24 23 23 22 21 22 24 24 23 21 20 21
8 7 5 4 5 6 11 4 5 5 5 3 4 4 3 6 4 5 7 11 19 20 23 30 32 30 30 33 34 30 28 27 29 31 31 30 29 27 25 26 27 26 25 23 22 21 22 23 23 23 22 20 22 25
5 5 5 1 7 9 6 3 3 4 3 2 3 6 4 2 1 4 7 11 17 18 19 24 29 32 33 30 26 27 31 33 33 30 29 30 28 31 31 29 27 25 25 23 21 21 22 23 22 21 21 21 23 26
4 7 5 10 4 8 9 8 9 11 6 5 9 2 2 4 2 11 7 8 10 11 12 18 23 29 33 33 32 31 29 29 31 35 33 33 31 30 27 27 25 23 21 21 22 21 22 21 21 19 19 21 25 29
8 12 10 11 11 12 9 8 8 4 7 10 6 5 4 4 11 10 10 13 13 13 13 16 22 30 31 29 26 28 32 29 31 29 28 28 27 27 29 27 23 21 22 21 21 21 22 22 21 19 17 20 25 28
7 17 11 22 10 11 8 5 10 12 7 11 17 7 11 14 9 6 8 7 9 10 15 21 25 28 31 36 36 35 33 37 34 32 33 33 31 29 28 25 23 23 23 24 24 25 24 23 22 20 20 21 23 25
6 17 19 8 7 8 16 11 12 15 13 21 8 7 10 14 13 14 20 28 42 53 59 57 52 46 40 38 40 43 43 38 42 42 42 38 34 30 27 27 27 28 29 30 29 27 26 24 22 21 21 21 22 24
11 24 6 10 10 10 10 18 10 15 18 25 17 20 30 50 58 60 64 64 54 36 23 23 27 32 41 52 46 47 47 44 42 42 39 34 27 26 27 28 29 29 30 30 29 28 27 25 23 21 20 20 21 23
13 15 5 7 3 5 8 13 18 22 22 21 34 37 41 37 44 28 13 7 11 18 25 30 35 36 38 38 45 53 47 44 41 38 34 34 34 33 32 30 28 26 27 28 28 27 25 23 21 21 21 21 22 24
11 10 7 4 3 3 5 5 5 7 8 8 9 9 12 11 12 7 6 9 15 24 33 36 38 38 38 40 39 45 44 37 32 31 27 27 29 32 35 34 31 28 27 26 25 23 22 21 21 21 21 22 22 24
6 7 5 2 3 3 4 4 4 6 8 7 6 6 7 9 14 8 8 10 17 24 25 24 25 27 25 15 9 26 32 31 25 20 21 22 24 27 27 27 26 25 23 23 23 22 21 21 21 22 23 23 24 26
Wind_Direction_500mb
43 46 49 53 63 74 84 108 121 132 143 153 162 168 169 183 168 141 110 146 143 100 60 73 104 98 121 131 145 164 95 16 48 82 120 166 120 211 112 165 178 154 155 180 163 191 285 29 104 178 7 28 13 9
48 47 48 48 52 56 69 96 120 128 148 158 164 174 187 199 218 179 122 109 132 110 108 91 88 97 99 117 133 156 129 133 147 98 96 108 108 126 155 206 213 163 174 182 179 168 75 63 92 77 41 29 8 355
51 51 51 55 58 54 59 60 76 118 142 154 151 167 179 195 189 185 150 138 134 99 73 82 57 81 109 132 147 120 149 122 124 114 132 135 123 134 149 235 114 275 312 154 85 2 85 103 83 38 14 6 340 333
45 50 53 56 62 67 68 64 64 80 107 124 135 140 141 158 160 165 140 138 137 113 90 52 84 67 91 122 161 155 153 133 125 121 88 107 122 184 137 156 131 337 353 223 206 58 113 70 23 353 344 334 329 328
42 45 49 55 57 63 69 70 72 72 87 128 120 117 134 152 154 146 130 125 103 109 126 114 71 65 86 94 111 128 144 141 110 80 64 92 123 92 14 61 70 11 24 49 121 54 341 298 325 335 335 338 331 326
40 42 45 46 51 55 57 61 68 78 85 87 100 114 115 119 118 114 80 63 100 122 102 76 60 53 81 93 112 116 122 111 94 86 91 84 79 63 111 127 99 90 78 50 344 307 294 303 326 310 325 326 324 321
38 38 41 43 44 46 47 52 58 68 79 88 97 113 129 146 155 187 109 133 133 110 89 91 55 30 43 63 69 64 76 68 75 89 64 69 39 31 90 171 146 166 318 342 303 340 120 320 321 330 328 325 323 321
34 35 34 33 37 40 39 40 43 57 74 80 87 96 105 104 101 83 90 102 111 96 83 103 127 62 29 43 44 36 41 48 46 84 66 41 44 36 138 139 147 223 344 120 268 327 308 312 323 330 331 333 334 334
32 30 30 31 30 27 29 31 32 35 44 58 68 78 87 71 59 62 75 75 72 96 105 67 85 159 33 67 81 52 52 60 40 73 43 38 339 226 134 155 176 210 176 238 301 324 343 336 343 345 347 347 342 341
25 26 27 24 25 25 23 20 22 24 23 31 31 28 46 14 24 27 42 59 43 39 52 85 4 29 24 32 66 53 33 89 83 295 26 59 266 143 166 161 198 231 263 288 341 356 351 355 351 351 357 350 338 343
23 19 17 19 20 20 21 22 23 12 18 39 41 54 28 29 26 35 45 39 359 37 25 39 36 27 37 60 102 38 113 83 121 263 109 279 281 191 193 213 233 247 303 332 346 355 352 347 347 354 354 350 347 353
20 19 20 18 14 11 14 22 25 36 43 49 54 38 25 25 45 70 28 14 40 104 5 30 351 38 23 64 81 3 93 39 166 155 80 264 206 163 181 196 199 196 201 243 353 7 347 342 334 348 345 358 2 2
16 19 22 20 17 17 13 10 21 27 26 31 32 40 12 355 39 57 6 356 44 359 360 18 10 14 36 59 62 77 85 179 153 90 223 220 161 171 180 180 182 179 169 159 292 318 321 322 303 321 347 0 8 7
15 19 18 13 14 13 12 9 8 17 33 50 34 29 58 4 49 45 29 66 98 357 348 40 11 49 24 44 332 88 277 83 70 251 236 212 178 173 176 180 176 170 163 162 178 223 28 317 306 331 344 7 10 3
10 13 15 15 12 10 10 10 11 22 50 58 39 55 58 127 80 80 80 69 48 45 50 347 30 48 354 73 28 89 43 253 203 233 221 169 173 176 174 177 176 177 177 173 176 175 239 293 313 330 342 5 4 358
5 15 18 11 7 7 6 11 24 51 58 53 60 86 125 133 108 72 85 61 68 83 79 61 92 54 3 112 64 213 152 224 239 182 170 171 173 174 175 175 175 178 179 178 185 209 253 285 299 336 335 353 354 352
4 4 357 2 9 14 15 25 35 51 58 57 55 92 102 83 112 151 145 83 78 79 65 33 63 212 10 32 278 197 209 227 182 166 171 179 179 174 172 171 174 181 192 215 240 247 251 269 303 332 318 338 345 344
0 1 358 356 3 10 29 38 63 66 68 91 120 127 110 124 133 139 145 136 123 111 131 172 132 94 200 200 255 234 186 187 182 188 182 181 182 181 181 184 190 205 219 231 236 240 247 270 297 314 327 337 341 339
345 350 359 4 6 15 37 43 50 90 92 112 132 140 130 143 162 169 175 186 178 170 159 134 92 208 237 226 228 233 232 217 203 193 190 191 196 195 195 201 210 218 226 232 234 249 267 278 299 316 326 331 337 340
322 332 341 348 357 22 68 52 62 88 125 151 155 164 181 218 202 213 210 192 178 188 180 200 216 215 218 248 273 264 250 212 199 185 198 205 207 208 211 217 220 224 231 235 242 255 267 279 298 311 320 326 332 341
306 310 332 341 352 51 85 89 71 81 123 135 156 175 229 229 227 223 235 206 207 220 235 229 231 239 255 262 244 219 200 199 202 206 216 216 214 215 219 223 225 229 238 249 259 267 275 284 298 308 316 322 328 334
290 299 318 328 27 87 85 72 100 117 127 128 161 207 201 225 217 216 227 214 237 234 218 230 243 242 234 227 223 218 214 213 216 221 227 226 218 222 227 233 235 239 250 261 267 272 274 283 296 304 311 315 320 326
280 277 263 215 143 93 129 146 137 138 108 168 162 103 235 203 231 248 253 234 253 250 240 243 245 247 228 225 227 229 230 231 230 228 227 229 231 232 236 237 240 248 257 265 269 274 276 286 294 301 308 313 319 328
247 234 216 174 142 140 142 118 127 123 126 84 108 273 229 190 230 215 250 251 244 254 250 243 237 236 235 235 236 238 236 233 228 226 227 231 235 237 238 239 243 248 255 261 265 271 277 286 293 299 302 307 318 328
238 240 203 341 147 120 105 100 26 72 224 224 96 294 289 310 352 246 235 263 259 273 258 245 238 237 240 248 248 241 236 237 239 241 240 240 236 233 237 240 241 241 251 260 266 268 277 285 290 293 297 307 316 325
219 211 164 182 159 158 173 152 187 192 151 185 228 196 136 83 32 247 237 251 274 273 272 253 249 247 252 258 259 256 254 252 246 243 239 239 242 244 245 244 243 243 255 264 262 268 276 282 285 286 291 303 315 321
231 214 176 164 151 145 95 102 131 133 165 198 192 149 121 220 240 247 239 245 264 269 271 272 264 256 256 253 254 254 250 250 248 247 241 241 243 240 235 240 248 253 266 274 270 277 284 285 281 279 288 301 307 313
209 173 175 169 153 167 139 145 165 196 212 182 147 189 195 204 239 217 221 246 284 304 290 288 282 277 269 258 249 243 244 239 240 241 242 242 239 236 235 239 248 259 268 277 277 280 285 284 280 284 292 296 300 310
171 157 142 115 138 193 213 193 204 197 189 179 186 230 239 227 247 268 279 286 289 292 289 284 277 274 271 266 254 248 243 238 232 234 239 243 243 241 243 250 259 261 265 271 273 277 281 279 276 280 288 296 306 314
179 169 156 165 167 210 201 197 206 209 206 216 242 266 271 275 284 289 291 291 293 292 301 304 297 284 268 255 255 249 243 241 236 236 243 246 253 251 252 258 265 266 260 259 263 269 271 269 270 280 288 297 308 317
162 177 159 180 200 215 220 230 249 259 259 257 257 261 272 293 303 306 297 239 257 302 314 312 308 301 289 274 258 246 242 238 236 235 237 246 252 258 261 265 265 256 251 255 258 258 254 258 270 281 291 301 309 314
159 175 181 163 204 233 267 251 266 259 261 264 268 266 289 284 277 272 234 256 304 319 324 323 321 313 298 279 255 234 226 226 228 227 233 251 264 265 261 260 256 250 253 255 256 254 257 265 273 281 289 296 303 309
157 173 178 132 181 212 217 281 282 298 266 271 268 268 248 258 258 258 263 287 321 330 340 347 356 2 7 0 256 212 206 202 207 218 243 251 257 257 251 246 245 247 249 251 250 251 258 266 276 285 292 299 305 310
Wind_Speed_850mb
102 105 98 88 79 73 57 50 53 62 67 70 73 81 68 39 10 24 30 39 51 31 33 18 15 20 42 29 19 28 16 6 6 7 7 5 6 9 7 11 11 12 13 7 6 5 11 4 9 5 10 23 33 32
93 93 91 92 84 82 77 73 44 49 50 51 61 59 57 38 16 28 39 36 70 47 33 45 42 34 28 26 56 23 9 12 13 8 3 7 5 4 9 5 6 6 10 9 14 8 9 40 45 26 21 14 28 34
84 88 84 84 80 79 79 75 60 45 45 46 44 39 36 40 33 36 52 53 53 48 41 30 33 35 25 37 47 15 9 12 12 14 8 4 7 6 7 7 5 3 2 5 8 15 17 36 25 28 39 26 31 37
77 77 79 83 79 77 73 69 57 46 45 53 42 39 38 35 37 51 74 57 51 27 10 21 33 40 29 19 21 17 30 28 35 22 10 6 6 2 3 6 6 2 5 4 1 16 22 30 31 54 42 43 49 53
75 73 69 71 74 76 75 67 62 59 41 30 36 38 31 31 38 46 47 45 24 13 11 11 35 43 33 28 27 31 38 44 18 10 7 5 6 7 3 5 6 14 7 2 4 12 10 18 48 45 46 55 63 70
65 67 68 64 61 63 65 67 64 56 48 48 42 37 38 47 48 49 20 19 11 48 20 6 12 25 37 40 40 38 36 27 16 12 9 8 6 4 5 5 7 10 8 7 1 22 27 27 20 21 52 57 60 61
59 58 59 59 57 53 53 53 54 52 52 49 42 31 24 24 25 2 15 26 29 25 16 8 6 11 15 19 22 29 26 21 15 10 8 6 6 9 4 5 17 5 1 6 10 19 4 19 31 50 53 56 57 62
54 55 54 52 51 50 48 45 44 39 40 45 48 48 45 45 52 50 35 28 23 20 17 7 2 5 14 11 9 15 12 11 18 10 7 7 4 6 2 16 12 3 7 5 4 21 21 32 35 39 42 48 53 56
51 50 50 50 48 46 44 41 38 33 27 22 22 22 23 23 19 19 29 36 32 16 14 9 4 4 9 8 7 8 8 7 8 5 5 6 4 5 7 21 13 6 3 9 14 14 14 25 30 35 41 46 49 52
47 46 46 45 46 45 43 40 35 29 22 17 14 12 13 16 17 13 8 7 15 21 18 6 5 3 11 4 7 3 7 4 4 3 5 6 4 14 17 9 7 6 7 7 7 5 19 23 30 34 37 38 39 43
47 46 45 43 41 39 40 41 39 32 19 16 15 11 14 19 13 13 14 18 20 10 18 12 18 5 12 6 3 8 4 3 5 5 6 2 7 10 22 9 7 6 3 6 10 11 13 16 22 27 28 28 32 35
44 44 41 42 42 38 33 32 33 34 37 22 12 13 14 14 13 15 4 7 12 2 12 7 11 8 7 7 5 5 5 6 3 7 6 6 5 26 24 16 10 5 4 2 2 5 7 11 13 14 18 24 29 34
42 39 37 40 41 40 36 30 25 23 17 14 11 9 17 17 20 11 7 7 6 10 12 12 4 6 6 8 8 5 8 4 9 4 8 7 22 28 19 15 12 9 6 2 1 3 3 6 12 12 13 15 22 26
37 37 34 34 36 37 38 33 22 17 9 8 13 14 8 9 8 5 3 3 2 4 5 5 4 6 6 6 2 9 2 6 2 3 12 5 33 23 19 16 13 11 8 5 3 1 2 6 8 10 12 15 19 22
35 34 33 32 35 33 34 34 27 14 11 13 13 9 7 6 5 5 8 6 5 5 5 4 5 4 5 7 3 7 7 6 11 9 4 20 28 22 20 17 15 14 12 10 7 4 0 4 6 9 12 14 18 22
28 31 37 35 33 36 27 26 21 17 12 12 15 11 9 5 3 4 7 2 3 5 5 5 2 6 4 5 5 11 10 11 8 5 18 30 29 26 23 19 16 14 12 10 8 5 4 5 5 6 12 15 20 25
26 25 29 33 34 30 30 20 14 16 12 10 10 17 14 12 10 6 5 2 5 3 3 4 8 10 2 5 5 6 9 5 9 16 25 26 26 26 24 21 18 16 12 10 9 8 6 6 6 8 12 16 21 24
26 29 28 29 29 23 25 20 11 11 14 10 4 8 8 11 10 6 4 4 4 4 4 4 4 4 8 7 7 5 7 11 15 19 23 26 25 24 22 19 17 15 14 12 11 11 9 7 9 13 17 20 22 23
22 24 27 28 27 16 8 11 11 10 7 8 14 13 7 6 6 7 6 6 7 7 5 5 5 6 7 10 10 11 18 23 22 25 25 25 24 23 21 19 18 16 15 15 15 12 11 11 14 17 21 24 25 26
20 20 21 23 22 9 6 8 8 8 6 9 10 10 5 4 7 9 9 8 11 6 4 6 10 12 14 16 20 23 17 25 23 29 28 28 27 25 21 20 19 18 17 16 15 15 15 15 17 20 23 26 26 24
18 13 18 18 9 6 8 6 9 8 12 5 9 7 3 4 6 6 6 13 13 12 12 28 33 25 21 19 13 12 15 21 27 26 22 26 27 27 25 24 23 21 18 17 18 18 19 19 21 23 24 25 24 24
12 14 13 8 2 5 8 9 10 10 5 6 7 4 3 4 5 7 7 15 16 19 23 20 23 25 27 23 20 20 21 24 26 27 27 22 27 30 28 24 25 21 19 19 21 21 21 21 22 24 24 22 21 22
10 7 5 5 4 3 3 8 4 6 5 5 3 1 4 5 4 5 10 14 17 23 32 35 31 23 25 26 27 27 27 27 28 27 26 24 25 26 26 24 24 24 24 23 23 22 21 22 24 24 23 21 20 21
8 7 5 4 5 6 11 4 5 5 5 3 4 4 3 6 4 5 7 11 19 20 23 30 32 30 30 33 34 30 28 27 29 31 31 30 29 27 25 26 27 26 25 23 22 21 22 23 23 23 22 20 22 25
5 5 5 1 7 9 6 3 3 4 3 2 3 6 4 2 1 4 7 11 17 18 19 24 29 32 33 30 26 27 31 33 33 30 29 30 28 31 31 29 27 25 25 23 21 21 22 23 22 21 21 21 23 26
4 7 5 10 4 8 9 8 9 11 6 5 9 2 2 4 2 11 7 8 10 11 12 18 23 29 33 33 32 31 29 29 31 35 33 33 31 30 27 27 25 23 21 21 22 21 22 21 21 19 19 21 25 29
8 12 10 11 11 12 9 8 8 4 7 10 6 5 4 4 11 10 10 13 13 13 13 16 22 30 31 29 26 28 32 29 31 29 28 28 27 27 29 27 23 21 22 21 21 21 22 22 21 19 17 20 25 28
7 17 11 22 10 11 8 5 10 12 7 11 17 7 11 14 9 6 8 7 9 10 15 21 25 28 31 36 36 35 33 37 34 32 33 33 31 29 28 25 23 23 23 24 24 25 24 23 22 20 20 21 23 25
6 17 19 8 7 8 16 11 12 15 13 21 8 7 10 14 13 14 20 28 42 53 59 57 52 46 40 38 40 43 43 38 42 42 42 38 34 30 27 27 27 28 29 30 29 27 26 24 22 21 21 21 22 24
11 24 6 10 10 10 10 18 10 15 18 25 17 20 30 50 58 60 64 64 54 36 23 23 27 32 41 52 46 47 47 44 42 42 39 34 27 26 27 28 29 29 30 30 29 28 27 25 23 21 20 20 21 23
13 15 5 7 3 5 8 13 18 22 22 21 34 37 41 37 44 28 13 7 11 18 25 30 35 36 38 38 45 53 47 44 41 38 34 34 34 33 32 30 28 26 27 28 28 27 25 23 21 21 21 21 22 24
11 10 7 4 3 3 5 5 5 7 8 8 9 9 12 11 12 7 6 9 15 24 33 36 38 38 38 40 39 45 44 37 32 31 27 27 29 32 35 34 31 28 27 26 25 23 22 21 21 21 21 22 22 24
6 7 5 2 3 3 4 4 4 6 8 7 6 6 7 9 14 8 8 10 17 24 25 24 25 27 25 15 9 26 32 31 25 20 21 22 24 27 27 27 26 25 23 23 23 22 21 21 21 22 23 23 24 26
Wind_Direction_850mb
43 46 49 53 63 74 84 108 121 132 143 153 162 168 169 183 168 141 110 146 143 100 60 73 104 98 121 131 145 164 95 16 48 82 120 166 120 211 112 165 178 154 155 180 163 191 285 29 104 178 7 28 13 9
48 47 48 48 52 56 69 96 120 128 148 158 164 174 187 199 218 179 122 109 132 110 108 91 88 97 99 117 133 156 129 133 147 98 96 108 108 126 155 206 213 163 174 182 179 168 75 63 92 77 41 29 8 355
51 51 51 55 58 54 59 60 76 118 142 154 151 167 179 195 189 185 150 138 134 99 73 82 57 81 109 132 147 120 149 122 124 114 132 135 123 134 149 235 114 275 312 154 85 2 85 103 83 38 14 6 340 333
45 50 53 56 62 67 68 64 64 80 107 124 135 140 141 158 160 165 140 138 137 113 90 52 84 67 91 122 161 155 153 133 125 121 88 107 122 184 137 156 131 337 353 223 206 58 113 70 23 353 344 334 329 328
42 45 49 55 57 63 69 70 72 72 87 128 120 117 134 152 154 146 130 125 103 109 126 114 71 65 86 94 111 128 144 141 110 80 64 92 123 92 14 61 70 11 24 49 121 54 341 298 325 335 335 338 331 326
40 42 45 46 51 55 57 61 68 78 85 87 100 114 115 119 118 114 80 63 100 122 102 76 60 53 81 93 112 116 122 111 94 86 91 84 79 63 111 127 99 90 78 50 344 307 294 303 326 310 325 326 324 321
38 38 41 43 44 46 47 52 58 68 79 88 97 113 129 146 155 187 109 133 133 110 89 91 55 30 43 63 69 64 76 68 75 89 64 69 39 31 90 171 146 166 318 342 303 340 120 320 321 330 328 325 323 321
34 35 34 33 37 40 39 40 43 57 74 80 87 96 105 104 101 83 90 102 111 96 83 103 127 62 29 43 44 36 41 48 46 84 66 41 44 36 138 139 147 223 344 120 268 327 308 312 323 330 331 333 334 334
32 30 30 31 30 27 29 31 32 35 44 58 68 78 87 71 59 62 75 75 72 96 105 67 85 159 33 67 81 52 52 60 40 73 43 38 339 226 134 155 176 210 176 238 301 324 343 336 343 345 347 347 342 341
25 26 27 24 25 25 23 20 22 24 23 31 31 28 46 14 24 27 42 59 43 39 52 85 4 29 24 32 66 53 33 89 83 295 26 59 266 143 166 161 198 231 263 288 341 356 351 355 351 351 357 350 338 343
23 19 17 19 20 20 21 22 23 12 18 39 41 54 28 29 26 35 45 39 359 37 25 39 36 27 37 60 102 38 113 83 121 263 109 279 281 191 193 213 233 247 303 332 346 355 352 347 347 354 354 350 347 353
20 19 20 18 14 11 14 22 25 36 43 49 54 38 25 25 45 70 28 14 40 104 5 30 351 38 23 64 81 3 93 39 166 155 80 264 206 163 181 196 199 196 201 243 353 7 347 342 334 348 345 358 2 2
16 19 22 20 17 17 13 10 21 27 26 31 32 40 12 355 39 57 6 356 44 359 360 18 10 14 36 59 62 77 85 179 153 90 223 220 161 171 180 180 182 179 169 159 292 318 321 322 303 321 347 0 8 7
15 19 18 13 14 13 12 9 8 17 33 50 34 29 58 4 49 45 29 66 98 357 348 40 11 49 24 44 332 88 277 83 70 251 236 212 178 173 176 180 176 170 163 162 178 223 28 317 306 331 344 7 10 3
10 13 15 15 12 10 10 10 11 22 50 58 39 55 58 127 80 80 80 69 48 45 50 347 30 48 354 73 28 89 43 253 203 233 221 169 173 176 174 177 176 177 177 173 176 175 239 293 313 330 342 5 4 358
5 15 18 11 7 7 6 11 24 51 58 53 60 86 125 133 108 72 85 61 68 83 79 61 92 54 3 112 64 213 152 224 239 182 170 171 173 174 175 175 175 178 179 178 185 209 253 285 299 336 335 353 354 352
4 4 357 2 9 14 15 25 35 51 58 57 55 92 102 83 112 151 145 83 78 79 65 33 63 212 10 32 278 197 209 227 182 166 171 179 179 174 172 171 174 181 192 215 240 247 251 269 303 332 318 338 345 344
0 1 358 356 3 10 29 38 63 66 68 91 120 127 110 124 133 139 145 136 123 111 131 172 132 94 200 200 255 234 186 187 182 188 182 181 182 181 181 184 190 205 219 231 236 240 247 270 297 314 327 337 341 339
345 350 359 4 6 15 37 43 50 90 92 112 132 140 130 143 162 169 175 186 178 170 159 134 92 208 237 226 228 233 232 217 203 193 190 191 196 195 195 201 210 218 226 232 234 249 267 278 299 316 326 331 337 340
322 332 341 348 357 22 68 52 62 88 125 151 155 164 181 218 202 213 210 192 178 188 180 200 216 215 218 248 273 264 250 212 199 185 198 205 207 208 211 217 220 224 231 235 242 255 267 279 298 311 320 326 332 341
306 310 332 341 352 51 85 89 71 81 123 135 156 175 229 229 227 223 235 206 207 220 235 229 231 239 255 262 244 219 200 199 202 206 216 216 214 215 219 223 225 229 238 249 259 267 275 284 298 308 316 322 328 334
290 299 318 328 27 87 85 72 100 117 127 128 161 207 201 225 217 216 227 214 237 234 218 230 243 242 234 227 223 218 214 213 216 221 227 226 218 222 227 233 235 239 250 261 267 272 274 283 296 304 311 315 320 326
280 277 263 215 143 93 129 146 137 138 108 168 162 103 235 203 231 248 253 234 253 250 240 243 245 247 228 225 227 229 230 231 230 228 227 229 231 232 236 237 240 248 257 265 269 274 276 286 294 301 308 313 319 328
247 234 216 174 142 140 142 118 127 123 126 84 108 273 229 190 230 215 250 251 244 254 250 243 237 236 235 235 236 238 236 233 228 226 227 231 235 237 238 239 243 248 255 261 265 271 277 286 293 299 302 307 318 328
238 240 203 341 147 120 105 100 26 72 224 224 96 294 289 310 352 246 235 263 259 273 258 245 238 237 240 248 248 241 236 237 239 241 240 240 236 233 237 240 241 241 251 260 266 268 277 285 290 293 297 307 316 325
219 211 164 182 159 158 173 152 187 192 151 185 228 196 136 83 32 247 237 251 274 273 272 253 249 247 252 258 259 256 254 252 246 243 239 239 242 244 245 244 243 243 255 264 262 268 276 282 285 286 291 303 315 321
231 214 176 164 151 145 95 102 131 133 165 198 192 149 121 220 240 247 239 245 264 269 271 272 264 256 256 253 254 254 250 250 248 247 241 241 243 240 235 240 248 253 266 274 270 277 284 285 281 279 288 301 307 313
209 173 175 169 153 167 139 145 165 196 212 182 147 189 195 204 239 217 221 246 284 304 290 288 282 277 269 258 249 243 244 239 240 241 242 242 239 236 235 239 248 259 268 277 277 280 285 284 280 284 292 296 300 310
171 157 142 115 138 193 213 193 204 197 189 179 186 230 239 227 247 268 279 286 289 292 289 284 277 274 271 266 254 248 243 238 232 234 239 243 243 241 243 250 259 261 265 271 273 277 281 279 276 280 288 296 306 314
179 169 156 165 167 210 201 197 206 209 206 216 242 266 271 275 284 289 291 291 293 292 301 304 297 284 268 255 255 249 243 241 236 236 243 246 253 251 252 258 265 266 260 259 263 269 271 269 270 280 288 297 308 317
162 177 159 180 200 215 220 230 249 259 259 257 257 261 272 293 303 306 297 239 257 302 314 312 308 301 289 274 258 246 242 238 236 235 237 246 252 258 261 265 265 256 251 255 258 258 254 258 270 281 291 301 309 314
159 175 181 163 204 233 267 251 266 259 261 264 268 266 289 284 277 272 234 256 304 319 324 323 321 313 298 279 255 234 226 226 228 227 233 251 264 265 261 260 256 250 253 255 256 254 257 265 273 281 289 296 303 309
157 173 178 132 181 212 217 281 282 298 266 271 268 268 248 258 258 258 263 287 321 330 340 347 356 2 7 0 256 212 206 202 207 218 243 251 257 257 251 246 245 247 249 251 250 251 258 266 276 285 292 299 305 310